Location: Doschendorf
(50.0069°N, 11.0602°E)
Time: 08:47:23
(UTC+00:00)

Cosmos 2082 - Pass Details

Date: 17 November 2019
Orbit: 836 x 854 km, 71.0° (Epoch: 11 December)

Event Time Altitude Azimuth Distance (km) Brightness Sun altitude
Rises 16:53:03 0° 330° (NNW) 3,398 7.1 -13.3°
Reaches altitude 10° 16:55:30 10° 330° (NNW) 2,459 6.3 -13.6°
Maximum altitude 17:01:09 82° 243° (WSW) 850 3.8 -14.5°
Drops below altitude 10° 17:06:46 10° 157° (SSE) 2,445 6.0 -15.4°
Sets 17:09:11 0° 156° (SSE) 3,377 6.7 -15.8°
